User: anonymous   Login
Location: Pianadetto
(44.4000°N, 10.1000°E)
Time: 07:27:57
(UTC+00:00)
Language:

Cosmos 1461 - Orbit

View from above orbital plane
View from above orbital plane
View from above satellite
View from above satellite

Ground track
Ground track

The orbit data is extracted from the following two-line orbital elements,

1 14064U 83044A   22230.64519947  .00004103  00000-0  34047-3 0  9997
2 14064  65.0006 191.8220 0093367   4.8959 355.3048 14.96827500  5555
Epoch (UTC): 18 August 2022 15:29:05
Eccentricity: 0.0093367
inclination: 65.0006°
perigee height: 512 km
apogee height: 641 km
right ascension of ascending node: 191.8220°
argument of perigee: 4.8959°
revolutions per day: 14.96827500
mean anomaly at epoch: 355.3048°
orbit number at epoch: 555

The dashed part of the orbit path shows where the satellite is in the earth's shadow,  

DLR